| time (UTC) | temp C | wind direction | speed KPH | gust KPH | rain 1hr cm | rain 24hr cm | rain mn cm | humidity % | barometer mb |
| 20260510191603 | 17 | 30 | 0.0 | 8.0 | 0.00 | 0.00 | 0.00 | 61 | 1019.7 |
| 20260510190059 | 17 | 0 | 0.0 | 4.8 | 0.00 | 0.00 | 0.00 | 67 | 1020.0 |
| 20260510184558 | 17 | 0 | 0.0 | 4.8 | 0.00 | 0.00 | 0.00 | 68 | 1020.6 |
| 20260510183056 | 17 | 286 | 0.0 | 4.8 | 0.00 | 0.00 | 0.00 | 66 | 1020.5 |
| 20260510181601 | 17 | 305 | 0.0 | 4.8 | 0.00 | 0.00 | 0.00 | 64 | 1020.3 |
| 20260510180110 | 17 | 0 | 0.0 | 6.4 | 0.00 | 0.00 | 0.00 | 64 | 1020.1 |
| 20260510174604 | 17 | 305 | 0.0 | 3.2 | 0.00 | 0.00 | 0.00 | 67 | 1020.2 |
| 20260510173102 | 17 | 0 | 0.0 | 4.8 | 0.00 | 0.00 | 0.00 | 64 | 1020.4 |
| 20260510171604 | 17 | 0 | 0.0 | 8.0 | 0.00 | 0.00 | 0.00 | 63 | 1020.4 |
| 20260510170058 | 17 | 0 | 0.0 | 11.3 | 0.00 | 0.00 | 0.00 | 62 | 1019.7 |
| 20260510164603 | 17 | 269 | 1.6 | 8.0 | 0.00 | 0.00 | 0.00 | 64 | 1019.2 |
| 20260510163059 | 17 | 15 | 0.0 | 8.0 | 0.00 | 0.00 | 0.00 | 66 | 1019.4 |
| 20260510161556 | 17 | 56 | 1.6 | 11.3 | 0.00 | 0.00 | 0.00 | 70 | 1019.2 |
| 20260510160056 | 16 | 325 | 1.6 | 9.7 | 0.00 | 0.00 | 0.00 | 72 | 1019.0 |
| 20260510154600 | 16 | 13 | 1.6 | 12.9 | 0.00 | 0.00 | 0.00 | 73 | 1018.8 |
| 20260510153058 | 16 | 348 | 1.6 | 11.3 | 0.00 | 0.00 | 0.00 | 73 | 1018.7 |
| 20260510151603 | 16 | 41 | 1.6 | 12.9 | 0.00 | 0.00 | 0.00 | 72 | 1018.1 |
| 20260510150108 | 16 | 34 | 1.6 | 9.7 | 0.00 | 0.00 | 0.00 | 70 | 1018.0 |
| 20260510144610 | 16 | 314 | 1.6 | 11.3 | 0.00 | 0.00 | 0.00 | 69 | 1017.7 |
| 20260510143102 | 17 | 0 | 1.6 | 12.9 | 0.00 | 0.00 | 0.00 | 71 | 1017.7 |
| 20260510141559 | 17 | 331 | 1.6 | 8.0 | 0.00 | 0.00 | 0.00 | 73 | 1017.7 |
| 20260510140057 | 16 | 0 | 0.0 | 6.4 | 0.00 | 0.00 | 0.00 | 76 | 1017.9 |
| 20260510134558 | 16 | 0 | 0.0 | 6.4 | 0.00 | 0.00 | 0.00 | 75 | 1018.2 |
| 20260510133057 | 16 | 288 | 0.0 | 6.4 | 0.00 | 0.00 | 0.00 | 74 | 1018.0 |
| 20260510131556 | 16 | 0 | 0.0 | 4.8 | 0.00 | 0.00 | 0.00 | 75 | 1017.7 |
| 20260510130108 | 16 | 26 | 0.0 | 6.4 | 0.00 | 0.00 | 0.00 | 75 | 1017.0 |
| 20260510124604 | 16 | 343 | 0.0 | 6.4 | 0.00 | 0.00 | 0.00 | 75 | 1016.5 |
| 20260510123101 | 16 | 335 | 0.0 | 6.4 | 0.00 | 0.00 | 0.00 | 76 | 1016.0 |
| 20260510121559 | 16 | 0 | 0.0 | 6.4 | 0.00 | 0.00 | 0.00 | 78 | 1015.7 |
| 20260510120057 | 16 | 0 | 0.0 | 3.2 | 0.00 | 0.00 | 0.00 | 80 | 1015.3 |
| 20260510114557 | 15 | 0 | 0.0 | 3.2 | 0.00 | 0.00 | 0.00 | 81 | 1014.8 |
| 20260510113100 | 15 | 0 | 0.0 | 4.8 | 0.00 | 0.00 | 0.00 | 83 | 1014.1 |
| 20260510111559 | 14 | 321 | 0.0 | 3.2 | 0.00 | 0.00 | 0.00 | 83 | 1014.2 |
| 20260510110059 | 15 | 0 | 0.0 | 3.2 | 0.00 | 0.00 | 0.00 | 83 | 1013.6 |
| 20260510104559 | 15 | 0 | 0.0 | 3.2 | 0.00 | 0.00 | 0.00 | 82 | 1013.2 |
| 20260510103100 | 15 | 0 | 0.0 | 0.0 | 0.00 | 0.00 | 0.00 | 81 | 1013.3 |
| 20260510101602 | 15 | 0 | 0.0 | 1.6 | 0.00 | 0.00 | 0.00 | 80 | 1013.2 |
| 20260510100105 | 16 | 0 | 0.0 | 0.0 | 0.00 | 0.00 | 0.00 | 80 | 1013.4 |
| 20260510094557 | 16 | 0 | 0.0 | 0.0 | 0.00 | 0.00 | 0.00 | 78 | 1013.3 |
| 20260510093100 | 17 | 0 | 0.0 | 3.2 | 0.00 | 0.00 | 0.00 | 76 | 1013.3 |
| 20260510091601 | 17 | 0 | 0.0 | 3.2 | 0.00 | 0.00 | 0.00 | 75 | 1012.9 |
| 20260510090058 | 17 | 360 | 0.0 | 1.6 | 0.00 | 0.00 | 0.00 | 74 | 1012.8 |
| 20260510084600 | 17 | 0 | 0.0 | 3.2 | 0.00 | 0.00 | 0.00 | 74 | 1012.4 |
| 20260510083059 | 17 | 0 | 0.0 | 4.8 | 0.00 | 0.00 | 0.00 | 74 | 1012.0 |
| 20260510081600 | 17 | 0 | 0.0 | 1.6 | 0.00 | 0.00 | 0.00 | 72 | 1011.9 |
| 20260510080105 | 18 | 0 | 0.0 | 0.0 | 0.00 | 0.00 | 0.00 | 69 | 1011.7 |
| 20260510074600 | 19 | 0 | 0.0 | 0.0 | 0.00 | 0.00 | 0.00 | 66 | 1011.7 |
| 20260510073114 | 19 | 0 | 0.0 | 0.0 | 0.00 | 0.00 | 0.00 | 64 | 1011.5 |
| 20260510071558 | 20 | 0 | 0.0 | 0.0 | 0.00 | 0.00 | 0.00 | 62 | 1011.3 |
| 20260510070106 | 20 | 0 | 0.0 | 3.2 | 0.00 | 0.00 | 0.00 | 62 | 1011.2 |
| 20260510064635 | 20 | 0 | 0.0 | 3.2 | 0.00 | 0.00 | 0.00 | 63 | 1011.3 |
| 20260510063058 | 20 | 0 | 0.0 | 0.0 | 0.00 | 0.00 | 0.00 | 62 | 1011.5 |
| 20260510061557 | 21 | 0 | 0.0 | 3.2 | 0.00 | 0.00 | 0.00 | 60 | 1011.6 |
| 20260510060057 | 21 | 0 | 0.0 | 3.2 | 0.00 | 0.00 | 0.00 | 57 | 1011.4 |
| 20260510054604 | 21 | 0 | 0.0 | 4.8 | 0.00 | 0.00 | 0.00 | 58 | 1010.7 |
| 20260510053056 | 20 | 0 | 1.6 | 11.3 | 0.00 | 0.00 | 0.00 | 60 | 1010.9 |
| 20260510051559 | 18 | 119 | 1.6 | 3.2 | 0.00 | 0.00 | 0.00 | 73 | 1012.2 |
| 20260510044602 | 19 | 0 | 0.0 | 4.8 | 0.00 | 0.00 | 0.00 | 69 | 1013.3 |
| 20260510043056 | 20 | 0 | 0.0 | 0.0 | 0.00 | 0.00 | 0.00 | 68 | 1013.1 |
| 20260510041555 | 20 | 0 | 0.0 | 3.2 | 0.00 | 0.00 | 0.00 | 65 | 1013.0 |
| 20260510040057 | 20 | 0 | 0.0 | 1.6 | 0.00 | 0.00 | 0.00 | 66 | 1013.0 |
| 20260510034617 | 19 | 295 | 0.0 | 1.6 | 0.00 | 0.00 | 0.00 | 68 | 1012.5 |
| 20260510033100 | 18 | 0 | 0.0 | 1.6 | 0.00 | 0.00 | 0.00 | 70 | 1012.1 |
| 20260510031600 | 18 | 0 | 0.0 | 0.0 | 0.00 | 0.00 | 0.00 | 69 | 1011.8 |
| 20260510030106 | 19 | 0 | 0.0 | 0.0 | 0.00 | 0.00 | 0.00 | 67 | 1011.5 |
| 20260510024559 | 20 | 0 | 0.0 | 0.0 | 0.00 | 0.00 | 0.00 | 63 | 1011.4 |
| 20260510023058 | 20 | 0 | 0.0 | 0.0 | 0.00 | 0.00 | 0.00 | 58 | 1011.0 |
| 20260510021603 | 21 | 0 | 0.0 | 0.0 | 0.00 | 0.00 | 0.00 | 55 | 1010.7 |
| 20260510020056 | 22 | 0 | 0.0 | 0.0 | 0.00 | 0.00 | 0.00 | 52 | 1010.5 |
| 20260510014602 | 22 | 0 | 0.0 | 0.0 | 0.00 | 0.00 | 0.00 | 50 | 1010.2 |
| 20260510013135 | 23 | 0 | 0.0 | 0.0 | 0.00 | 0.00 | 0.00 | 47 | 1009.7 |
| 20260510011556 | 24 | 0 | 0.0 | 0.0 | 0.00 | 0.00 | 0.00 | 43 | 1009.5 |
| 20260510010057 | 25 | 0 | 0.0 | 1.6 | 0.00 | 0.00 | 0.00 | 41 | 1009.2 |
| 20260510004559 | 26 | 0 | 0.0 | 3.2 | 0.00 | 0.00 | 0.00 | 39 | 1009.0 |
| 20260510003107 | 26 | 113 | 0.0 | 6.4 | 0.00 | 0.00 | 0.00 | 38 | 1008.8 |
| 20260510001559 | 27 | 128 | 0.0 | 4.8 | 0.00 | 0.00 | 0.00 | 36 | 1008.5 |
| 20260510000126 | 27 | 111 | 0.0 | 6.4 | 0.00 | 0.00 | 0.00 | 34 | 1008.5 |
| 20260509234556 | 27 | 123 | 0.0 | 6.4 | 0.00 | 0.03 | 0.00 | 32 | 1008.7 |
| 20260509233059 | 27 | 0 | 1.6 | 12.9 | 0.00 | 0.03 | 0.00 | 31 | 1008.7 |
| 20260509231616 | 28 | 186 | 1.6 | 12.9 | 0.00 | 0.03 | 0.00 | 31 | 1008.8 |
| 20260509230108 | 28 | 116 | 1.6 | 8.0 | 0.00 | 0.03 | 0.00 | 33 | 1008.7 |
| 20260509224600 | 28 | 75 | 1.6 | 6.4 | 0.00 | 0.03 | 0.00 | 34 | 1008.7 |
| 20260509223111 | 28 | 115 | 1.6 | 11.3 | 0.00 | 0.03 | 0.00 | 33 | 1008.8 |
| 20260509221619 | 29 | 118 | 1.6 | 8.0 | 0.00 | 0.03 | 0.00 | 35 | 1008.9 |
| 20260509220100 | 29 | 0 | 1.6 | 11.3 | 0.00 | 0.03 | 0.00 | 35 | 1008.9 |
| 20260509214603 | 28 | 0 | 0.0 | 6.4 | 0.00 | 0.03 | 0.00 | 31 | 1009.1 |
| 20260509213057 | 28 | 0 | 1.6 | 9.7 | 0.00 | 0.03 | 0.00 | 33 | 1009.3 |
| 20260509211604 | 30 | 0 | 0.0 | 4.8 | 0.00 | 0.03 | 0.00 | 33 | 1009.5 |
| 20260509210100 | 29 | 0 | 0.0 | 6.4 | 0.00 | 0.03 | 0.00 | 35 | 1009.6 |
| 20260509204603 | 30 | 119 | 0.0 | 6.4 | 0.00 | 0.03 | 0.00 | 34 | 1009.7 |
| 20260509203055 | 29 | 0 | 1.6 | 9.7 | 0.00 | 0.03 | 0.00 | 33 | 1009.9 |
| 20260509201559 | 30 | 122 | 0.0 | 6.4 | 0.00 | 0.03 | 0.00 | 36 | 1010.1 |
| 20260509200110 | 30 | 0 | 0.0 | 4.8 | 0.00 | 0.03 | 0.00 | 35 | 1010.2 |
| 20260509194558 | 29 | 193 | 0.0 | 4.8 | 0.00 | 0.03 | 0.00 | 36 | 1010.3 |
| 20260509193056 | 29 | 0 | 0.0 | 8.0 | 0.00 | 0.03 | 0.00 | 34 | 1010.4 |